Flag for United Kingdom Weather past 2 weeks in Newcastle upon Tyne, England, United Kingdom

Now
34 °F

Passing clouds.


Feels Like: 27 °F
Forecast: 33 / 38 °F
Wind: 8 mph from West

Location: Newcastle

Current Time: Dec 29, 2014 at 11:52:40 AM

Latest Report: Dec 29, 2014 at 11:20 AM


Visibility: N/A

Pressure: 30.66 "Hg

Humidity: 93%

Dew point: 32 °F

Location of Newcastle upon TyneLocation

Historic Weather in Newcastle upon Tyne — Graph

°F

Newcastle upon Tyne temperature yesterday

Maximum temperature yesterday: 37 °F (at 12:20 PM)
Minimum temperature yesterday: 28 °F (at 11:50 PM)
Average temperature yesterday: 33 °F

Past Weeks' High & Low Weather Summary

 TemperatureHumidityPressure
High57 °F (Dec 21, 8:20 PM)100% (Dec 16, 10:20 PM)30.69 "Hg (Dec 16, 10:20 PM)
Low28 °F (Dec 25, 8:20 PM)71% (Dec 19, 3:50 AM)29.30 "Hg (Dec 18, 1:20 PM)
Average42 °F89%29.85 "Hg
* Reported Dec 14 10:20 AM — Dec 29 10:20 AM, Newcastle upon Tyne, Weather by CustomWeather, © 2014

Note: Actual official high and low records may vary slightly from our data, if they occured in-between our weather recording intervals... More about our weather records

Advertising

Newcastle upon Tyne weather history for previous 24 hours

 ConditionsComfort  
Time TempWeatherWind HumidityBarometerVisibility
10:20 AM
Dec 29
34 °FSunny.7 mph93%30.69 "Hg10 mi
9:50 AM30 °FSunny.5 mph100%30.66 "Hg10 mi
9:20 AM28 °FSunny.6 mph100%30.66 "Hg10 mi
8:50 AM28 °FSunny.7 mph100%30.66 "Hg10 mi
8:20 AM28 °FClear.5 mph100%30.66 "Hg10 mi
7:50 AM28 °FClear.3 mph100%30.66 "Hg10 mi
7:20 AM28 °FClear.6 mph100%30.66 "Hg10 mi
6:50 AM28 °FClear.7 mph93%30.63 "Hg10 mi
6:20 AM28 °FClear.3 mph100%30.63 "Hg10 mi
5:50 AM30 °FClear.8 mph93%30.63 "Hg10 mi
5:20 AM30 °FClear.8 mph93%30.63 "Hg10 mi
4:50 AM30 °FClear.10 mph93%30.63 "Hg10 mi
4:20 AM30 °FClear.7 mph93%30.63 "Hg10 mi
3:50 AM30 °FClear.7 mph93%30.63 "Hg10 mi
3:20 AM28 °FClear.5 mph100%30.63 "Hg10 mi
2:50 AM30 °FClear.8 mph93%30.63 "Hg10 mi
2:20 AM28 °FClear.7 mph100%30.60 "Hg10 mi
1:50 AM28 °FClear.7 mph93%30.60 "Hg10 mi
1:20 AM30 °FClear.7 mph93%30.60 "Hg10 mi
12:20 AM30 °FClear.5 mph93%30.60 "Hg10 mi
11:50 PM
Dec 28
28 °FClear.6 mph93%30.60 "Hg10 mi
11:20 PM30 °FClear.7 mph93%30.60 "Hg10 mi
10:50 PM30 °FClear.8 mph93%30.60 "Hg10 mi
10:20 PM30 °FClear.8 mph93%30.60 "Hg10 mi
9:20 PM32 °FClear.7 mph87%30.57 "Hg10 mi
8:50 PM32 °FClear.9 mph93%30.57 "Hg10 mi
8:20 PM32 °FClear.10 mph93%30.57 "Hg10 mi
7:50 PM32 °FClear.9 mph93%30.57 "Hg10 mi
7:20 PM34 °FClear.10 mph87%30.57 "Hg10 mi
6:50 PM32 °FClear.9 mph93%30.54 "Hg10 mi
6:20 PM34 °FClear.12 mph87%30.54 "Hg10 mi
5:50 PM34 °FClear.13 mph87%30.54 "Hg10 mi
5:20 PM34 °FClear.9 mph87%30.54 "Hg10 mi
4:50 PM34 °FClear.10 mph93%30.54 "Hg10 mi
4:20 PM34 °FClear.10 mph93%30.51 "Hg10 mi
3:50 PM34 °FClear.6 mph93%30.51 "Hg10 mi
3:20 PM36 °FSunny.8 mph87%30.51 "Hg10 mi
2:50 PM36 °FSunny.8 mph87%30.48 "Hg10 mi
2:20 PM37 °FSunny.8 mph87%30.48 "Hg10 mi
1:50 PM37 °FSunny.10 mph87%30.48 "Hg10 mi
1:20 PM37 °FSunny.10 mph87%30.48 "Hg10 mi
12:50 PM37 °FSunny.9 mph87%30.48 "Hg10 mi
12:20 PM37 °FSunny.9 mph87%30.48 "Hg10 mi
11:50 AM36 °FSunny.9 mph93%30.48 "Hg10 mi
11:20 AM36 °FSunny.8 mph93%30.45 "Hg10 mi
Weather by CustomWeather, © 2014

See weather overviewHow to use our weather pages